User: anonymous   Login
Location: Columbia
(38.9520°N, 92.3340°W)
Time: 19:38:30
(UTC-05:00)
Language:

CZ-4B R/B - Orbit

View from above orbital plane
View from above orbital plane
View from above satellite
View from above satellite

Ground track
Ground track

The orbit data is extracted from the following two-line orbital elements,

1 29093U 06015B   17232.53373822 +.00004467 +00000-0 +10565-3 0  9994
2 29093 097.5009 345.0141 0065075 086.5896 274.2791 15.40141416627338
Epoch (UTC): 20 August 2017 12:48:34
Eccentricity: 0.0065075
inclination: 97.5009°
perigee height: 401 km
apogee height: 490 km
right ascension of ascending node: 345.0141°
argument of perigee: 86.5896°
revolutions per day: 15.40141416
mean anomaly at epoch: 274.2791°
orbit number at epoch: 62733

The dashed part of the orbit path shows where the satellite is in the earth's shadow,  

DLR